Weather History for Newburgh, NY

Change the Weather History Date:

Monday, April 7, 2014

  Actual Average Record
Temperature  
Mean Temperature 42 °F -  
Max Temperature 50 °F 52 °F 78 °F (1991)
Min Temperature 35 °F 33 °F 12 °F (1982)
Degree Days  
Heating Degree Days 22    
Moisture  
Dew Point 31 °F    
Average Humidity 66    
Maximum Humidity 100    
Minimum Humidity 32    
Precipitation  
Precipitation 0.00 in - - ()
Sea Level Pressure  
Sea Level Pressure 30.06 in    
Wind  
Wind Speed 6 mph (ESE)    
Max Wind Speed 16 mph    
Max Gust Speed 17 mph    
Visibility 11 miles    
Events Rain    
Averages and records for this station are not official NWS values.
T = Trace of Precipitation, MM = Missing Value Source: NWS Daily Summary

Daily Weather History Graph

Daily Weather History Graph

Search for Another Location

Airport:

Trip Planner

Search our weather history database for the weather conditions in past years. The results will help you decide how hot, cold, wet, or windy it might be!

Date:

Astronomy

Apr. 07, 2014 Rise Set
Actual Time 6:29 AM EDT 7:28 PM EDT
Civil Twilight 6:01 AM EDT 7:56 PM EDT
Nautical Twilight 5:27 AM EDT 8:30 PM EDT
Astronomical Twilight 4:52 AM EDT 9:05 PM EDT
Moon 12:21 PM EDT (4/7) 2:05 AM EDT (4/7)
Length of Visible Light 13h 55m
Length of Day
12h 58m
First Quarter, 53% of the Moon is Illuminated
Apr 7
First Quarter
Apr 15
Full
Apr 22
Last Quarter
Apr 29
New
May 6
First Quarter

Hourly Weather History & Observations

Time (EDT) Temp. Windchill Dew Point Humidity Pressure Visibility Wind Dir Wind Speed Gust Speed Precip Events Conditions
12:45 AM 41.0 °F 38.0 °F 26.6 °F 57% 30.19 in 10.0 mi Variable 4.6 mph - N/A   Clear
2:45 AM 37.4 °F 34.9 °F 28.4 °F 70% 30.16 in 10.0 mi Variable 3.5 mph - N/A   Scattered Clouds
4:45 AM 37.4 °F - 30.2 °F 75% 30.16 in 10.0 mi Calm Calm - N/A   Scattered Clouds
5:45 AM 35.6 °F - 30.2 °F 81% 30.16 in 10.0 mi Calm Calm - N/A   Scattered Clouds
6:45 AM 37.4 °F 33.8 °F 30.2 °F 75% 30.17 in 20.0 mi Variable 4.6 mph - N/A   Scattered Clouds
7:45 AM 39.2 °F 35.9 °F 32.0 °F 75% 30.20 in 20.0 mi Variable 4.6 mph - N/A   Scattered Clouds
8:45 AM 42.8 °F - 32.0 °F 66% 30.19 in 20.0 mi North - - N/A   Mostly Cloudy
9:45 AM 44.6 °F 42.2 °F 32.0 °F 61% 30.19 in 20.0 mi Variable 4.6 mph - N/A   Mostly Cloudy
10:45 AM 48.2 °F - 32.0 °F 54% 30.20 in 20.0 mi Calm Calm - N/A   Mostly Cloudy
11:45 AM 50.0 °F - 26.6 °F 40% 30.17 in 20.0 mi SSE 11.5 mph - N/A   Mostly Cloudy
12:45 PM 50.0 °F - 23.0 °F 35% 30.15 in 20.0 mi SSE 9.2 mph 17.3 mph N/A   Mostly Cloudy
1:45 PM 50.0 °F - 23.0 °F 35% 30.13 in 20.0 mi South 16.1 mph - N/A   Overcast
2:45 PM 50.0 °F - 23.0 °F 35% 30.07 in 10.0 mi ESE 13.8 mph - N/A   Overcast
3:45 PM 50.0 °F - 21.2 °F 32% 30.02 in 10.0 mi SE 13.8 mph - N/A   Mostly Cloudy
4:45 PM 48.2 °F - 26.6 °F 43% 29.99 in 10.0 mi ESE 13.8 mph - N/A   Overcast
5:45 PM 48.2 °F - 33.8 °F 58% 30.01 in 4.0 mi East 8.1 mph - N/A Rain Overcast
6:45 PM 42.8 °F 38.0 °F 37.4 °F 81% 29.95 in 4.0 mi East 8.1 mph - N/A   Overcast
7:45 PM 41.0 °F 35.8 °F 39.2 °F 93% 29.92 in 4.0 mi East 8.1 mph - N/A   Overcast
8:45 PM 41.0 °F 35.2 °F 39.2 °F 93% 29.89 in 2.5 mi ENE 9.2 mph - N/A   Overcast
9:45 PM 41.0 °F 35.2 °F 41.0 °F 100% 29.85 in 2.0 mi ENE 9.2 mph - N/A   Light Drizzle
10:45 PM 42.8 °F 37.5 °F 41.0 °F 93% 29.79 in 2.0 mi ENE 9.2 mph - N/A   Light Drizzle
11:45 PM 44.6 °F 40.7 °F 42.8 °F 93% 29.73 in 2.0 mi East 6.9 mph - N/A   Light Drizzle